Find Kosmos-445

NORAD ID: 5548 Int'l Des: 1971-086 Owner: OKB10 Country: SU operational
LEO

实时位置

正在加载3D地球...

关于 Kosmos-445

正在加载描述...

即将过境

Passes for default location (London). Set your location on the main map for personalized predictions.

高度历史

Loading altitude history...

两行轨道根数

1 5548U 71086B 26105.87542332 -.00000015 00000-0 64686-5 0 9994
2 5548 74.0321 12.2750 0103345 335.0879 91.9279 12.58227249503387
Epoch: Apr 15, 2026 • Age: 13 hours

当前状态

高度 1359.8 km
速度 7.21 km/s
星下点 -0.21°S, 16.79°E
类型 other

Most Searched